Regional Weather Roundup
Issued by NWS

Home | Current Version | Previous Version | Graphics & Text | Print | Product List | Glossary On
Versions: 1 2 3 4 5 6 7 8 9 10 11 12 13 14 15 16 17 18 19 20 21 22 23 24 25 26 27 28 29 30 31 32 33 34 35 36 37 38 39 40 41 42 43 44 45 46 47 48 49 50
000
ASUS43 KOAX 300210
RWRNE

WEATHER ROUNDUP FOR NEBRASKA
NATIONAL WEATHER SERVICE OMAHA NE
900 PM CDT MON MAY 29 2017

NOTES: SATELLITE DATA IS BEING USED TO AUGMENT CLOUD COVER ABOVE
       12000 FEET.
       "FAIR" INDICATES FEW OR NO CLOUDS BELOW 12,000 FEET WITH NO
       SIGNIFICANT WEATHER AND/OR OBSTRUCTIONS TO VISIBILITY.

  * THESE STATIONS DO NOT REPORT WEATHER SUCH AS RAIN...SNOW OR FOG.

NEZ001>004-019>022-054>056-300300-
NEBRASKA PANHANDLE

CITY           SKY/WX    TMP DP  RH WIND       PRES   REMARKS
SCOTTSBLUFF    CLEAR     64  35  34 N8        30.13R
ALLIANCE       CLEAR     60  33  36 N9        30.12R
CHADRON        CLEAR     60  43  53 E6        30.10R
GORDON         FAIR      58  41  51 N7        30.11S HAZE
KIMBALL        PTCLDY    61  43  50 CALM      30.19R
SIDNEY         PTCLDY    59  39  47 N8        30.16R
$$

NEZ057>060-069>072-079>082-300300-
SOUTHWEST NEBRASKA

CITY           SKY/WX    TMP DP  RH WIND       PRES   REMARKS
NORTH PLATTE   CLEAR     61  41  47 NE3       30.07R
IMPERIAL       CLEAR     62  43  49 N6        30.10R
LEXINGTON      CLEAR     65  36  34 N5        30.06S
MCCOOK         CLEAR     67  42  40 NE6       30.07R
OGALLALA       CLEAR     63  40  44 N7        30.10R
$$

NEZ005>010-023>029-035>040-094-300300-
NORTH CENTRAL NEBRASKA

CITY           SKY/WX    TMP DP  RH WIND       PRES   REMARKS
VALENTINE      CLEAR     64  33  31 N9        30.06S
AINSWORTH      CLEAR     61  38  42 N7        30.07R
BROKEN BOW     CLEAR     63  37  38 N5        30.06R
O`NEILL        CLEAR     61  36  39 NW6       30.04S
ORD            CLEAR     62  38  40 N5        30.03S
THEDFORD       CLEAR     64  36  35 N3        30.08S
$$

NEZ041-046>049-061>064-073>077-083>087-300300-
SOUTH CENTRAL NEBRASKA

CITY           SKY/WX    TMP DP  RH WIND       PRES   REMARKS
GRAND ISLAND   CLEAR     60  41  49 N8        30.05S
AURORA         CLEAR     64  36  34 N8        30.05R
HASTINGS       CLEAR     65  39  38 N7        30.06R
HEBRON         CLEAR     70  37  29 N6        30.03S
HOLDREGE       CLEAR     64  36  34 NE8       30.06R
KEARNEY *      CLEAR     63  37  39 N8        30.06S
YORK           CLEAR     63  37  39 N9        30.05R
$$

NEZ011>018-030>034-042>045-300300-
NORTHEAST NEBRASKA

CITY           SKY/WX    TMP DP  RH WIND       PRES   REMARKS
NORFOLK        CLEAR     60  42  51 W3        30.02S
ALBION         CLEAR     62  37  39 NW3       30.04S
BLAIR          MOCLDY    65  40  40 NW9       30.01S
FREMONT        CLEAR     65  39  37 NW7       30.03R
TEKAMAH        CLEAR     62  39  42 NW7       30.01R
WAYNE          PTCLDY    61  43  51 N3        30.01S
$$

NEZ050>053-065>068-078-088>093-300300-
SOUTHEAST NEBRASKA

CITY           SKY/WX    TMP DP  RH WIND       PRES   REMARKS
LINCOLN        CLEAR     69  37  30 NW7       30.03R
OMAHA EPPLEY   PTCLDY    64  42  44 NW8       30.01R
BEATRICE       CLEAR     63  42  46 N8        30.03R
NEBRASKA CITY  CLEAR     67  31  26 NW8       30.01S
PLATTSMOUTH    CLEAR     66  39  36 NW7       30.02R
$$

NEZ044-045-051>053-067-300300-
OMAHA AREA

CITY           SKY/WX    TMP DP  RH WIND       PRES   REMARKS
OMAHA EPPLEY   PTCLDY    64  42  44 NW8       30.01R
BLAIR          MOCLDY    65  40  40 NW9       30.01S
FREMONT        CLEAR     65  39  37 NW7       30.03R
MILLARD        PTCLDY    70  43  36 NW6       30.01S
OFFUTT AFB     CLEAR     66  41  40 NW8       30.00R
PLATTSMOUTH    CLEAR     66  39  36 NW7       30.02R
WAHOO          MOCLDY    66  36  33 NW7       30.02S
$$




USA.gov is the U.S. government's official web portal to all federal, state and local government web resources and services.